STARLINK-35962

Last updated on Fri Dec 19 2025 00:02:05 GMT+0000 (Coordinated Universal Time)

1 66518U 25265C 25352.66667824 .00023511 00000+0 56843-3 0 9998 2 66518 43.0010 19.7278 0001631 258.7945 91.4331 15.40695180 5949
UTC large
Height (km)
Speed (km/s)
/
Latitude / Longitude
Inclination (degrees)
Orbital Period (minutes)
Azimuth
Elevation
Range (km)
Doppler Factor

Next 0 passes for location: London (51.5072 / 0.1276)

Sorry there are no passes over London.